We konden geen weer-waarchuwingen ophalen. Ga rechtstreeks naar de Meteoalarm site : www.meteoalarm.eu en controleer daar .



Onweer radar Meer informatie blitzortung!


Regen radar Meer informatie rain snow radar


Bezoek onze andere website:

Template documentation
and downloads

And another site



15 daagse weersverwachting Donostia / San Sebastián (ES)

  • Overzicht
  • Per uur
  • 15 dagen
  • Extra
  • Vergelijk
  • Kaarten
  • Dagkaart
  • Meer »
  • Info
  • Statistieken
  • Directe link
    Temp 6h Neerslag Wind  
 07:18     21:06    Daglengte: 13:48 Vandaag
02:00
19°
8.9 mm
6
08:00
18°
5.6 mm
6
14:00
20°
19.3 mm
7
20:00
20°
39.8 mm
6
 07:19     21:04    Daglengte: 13:45 Morgen
02:00
19°
 
3
08:00
17°
 
2
14:00
22°
 
3
20:00
22°
 
2
 07:20     21:03    Daglengte: 13:43 Zaterdag 20 Aug
02:00
19°
 
2
08:00
19°
 
2
14:00
24°
11.3 mm
4
20:00
22°
 
3
Locatie info
Region: Basque Country
Latitude: 43.3128°N
Longitude: -1.9750°E
17 masl
Temp/Neerslag /Baro Onweer/Dauwpunt
    Temp Baro 1h Neerslag Dauwpunt Wind UV Bewolking  
 07:18     21:06    Daglengte: 13:48 Vandaag
01:00
19°
1017.0 hPa 7.4 mm
48%
16.9°
6
Windvlaag: 0.4 m/s
80%
02:00
19°
1017.0 hPa 1.5 mm
82%
16.8°
6
Windvlaag: 0.1 m/s
82%
03:00
19°
1016.8 hPa 1.6 mm
82%
16.8°
7
Windvlaag: -1.5 m/s
79%
04:00
19°
1016.7 hPa 1.7 mm
82%
16.0°
7
Windvlaag: -0.4 m/s
84%
05:00
19°
1016.8 hPa
82%
16.6°
7
Windvlaag: -0.8 m/s
81% warningclass
06:00
19°
1017.0 hPa
82%
16.8°
7
Windvlaag: 0 m/s
82% warningclass
07:00
19°
1017.1 hPa
82%
16.8°
6
Windvlaag: 1.6 m/s
86%
08:00
18°
1017.5 hPa 2.3 mm
82%
16.6°
6
Windvlaag: 1.3 m/s
86%
09:00
19°
1017.9 hPa 2.0 mm
82%
16.8°
6
Windvlaag: 1.4 m/s
78%
10:00
19°
1018.3 hPa
79%
17.0°
6
Windvlaag: 3.2 m/s
70%
11:00
19°
1018.6 hPa
77%
17.1°
7
Windvlaag: 2.9 m/s
69%
12:00
19°
1018.9 hPa 4.8 mm
76%
17.0°
7
Windvlaag: 2.9 m/s
61%
13:00
19°
1019.2 hPa 6.1 mm
80%
17.9°
7
Windvlaag: 1.5 m/s
62% warningclass
14:00
20°
1019.4 hPa 6.4 mm
82%
17.3°
7
Windvlaag: -1.4 m/s
64%
15:00
20°
1019.7 hPa 6.5 mm
80%
16.9°
7
Windvlaag: -3.3 m/s
62%
16:00
20°
1019.8 hPa 6.5 mm
80%
16.2°
7
Windvlaag: -3.7 m/s
60%
17:00
20°
1019.9 hPa 6.6 mm
81%
15.1°
7
Windvlaag: -3.4 m/s
62%
18:00
20°
1020.2 hPa 6.7 mm
82%
15.0°
6
Windvlaag: -2.7 m/s
63%
19:00
20°
1020.5 hPa 6.8 mm
82%
15.2°
6
Windvlaag: -1.9 m/s
65%
20:00
20°
1020.6 hPa 6.6 mm
81%
16.0°
6
Windvlaag: -1.8 m/s
83%
21:00
20°
1020.7 hPa
41%
15.8°
5
Windvlaag: -1.3 m/s
77%
22:00
20°
1021.5 hPa
30%
16.0°
5
Windvlaag: -2.5 m/s
63%
23:00
20°
1022.0 hPa
19%
16.3°
4
Windvlaag: -2.8 m/s
53%
 07:19     21:04    Daglengte: 13:45 Morgen
00:00
20°
1022.2 hPa
24%
16.3°
3
Windvlaag: -2.8 m/s
47%
01:00
19°
1022.1 hPa
25%
16.3°
3
Windvlaag: -1.8 m/s
13%
02:00
19°
1022.0 hPa
27%
15.8°
3
Windvlaag: -0.8 m/s
21%
03:00
19°
1021.7 hPa
26%
15.3°
3
Windvlaag: -0.6 m/s
16%
04:00
19°
1021.6 hPa
26%
14.5°
3
Windvlaag: -0.1 m/s
15%
05:00
18°
1021.6 hPa
24%
14.1°
3
Windvlaag: 3.1 m/s
18%
06:00
17°
1021.6 hPa
62%
13.8°
3
Windvlaag: 3.1 m/s
16%
07:00
17°
1021.8 hPa
24%
13.5°
2
Windvlaag: 3 m/s
17%
08:00
17°
1022.2 hPa
19%
13.7°
2
Windvlaag: 2.8 m/s
17%
09:00
18°
1022.4 hPa
17%
14.6°
2
Windvlaag: 2.6 m/s
15%
10:00
20°
1022.5 hPa
16%
15.5°
2
Windvlaag: 2.8 m/s
13%
11:00
21°
1022.6 hPa
14%
16.1°
2
Windvlaag: 2.1 m/s
10%
12:00
21°
1022.7 hPa
14%
16.4°
2
Windvlaag: 0.1 m/s
26%
13:00
22°
1022.4 hPa
14%
16.7°
3
Windvlaag: -3.1 m/s
5%
14:00
22°
1022.2 hPa
14%
16.7°
3
Windvlaag: -3.5 m/s
2%
15:00
23°
1022.0 hPa
14%
16.9°
3
Windvlaag: -3.6 m/s
2%
16:00
23°
1021.8 hPa
14%
17.2°
3
Windvlaag: -3.5 m/s
16%
17:00
22°
1021.2 hPa
21%
19.3°
3
Windvlaag: -3.4 m/s
8%
18:00
22°
1021.0 hPa
21%
19.7°
3
Windvlaag: -3.2 m/s
7%
19:00
22°
1021.1 hPa
21%
19.9°
3
Windvlaag: -2.9 m/s
10%
20:00
22°
1021.1 hPa
21%
20.0°
2
Windvlaag: -2.5 m/s
11%
21:00
21°
1021.1 hPa
21%
19.8°
1
Windvlaag: -1.5 m/s
11%
22:00
20°
1021.5 hPa
21%
19.6°
1
Windvlaag: 0 m/s
11%
23:00
20°
1021.8 hPa
23%
19.5°
1
Windvlaag: 1.6 m/s
12%
 07:20     21:03    Daglengte: 13:43 Zaterdag 20 Aug
00:00
20°
1021.9 hPa
78%
18.8°
2
Windvlaag: 2.2 m/s
48%
01:00
19°
1021.9 hPa
80%
18.6°
2
Windvlaag: 2.3 m/s
52%
02:00
19°
1021.7 hPa
84%
18.4°
2
Windvlaag: 2.6 m/s
53%
03:00
19°
1021.4 hPa
85%
18.4°
2
Windvlaag: 2.6 m/s
52%
04:00
19°
1021.2 hPa
41%
18.3°
2
Windvlaag: 2.6 m/s
70%
05:00
19°
1021.0 hPa
39%
18.1°
2
Windvlaag: 2.5 m/s
87%
06:00
19°
1020.8 hPa
38%
18.1°
2
Windvlaag: 2.7 m/s
90%
07:00
19°
1020.9 hPa
80%
18.1°
2
Windvlaag: 2.5 m/s
87%
08:00
19°
1021.2 hPa
37%
17.5°
2
Windvlaag: 2.2 m/s
83%
09:00
20°
1021.4 hPa 11.3 mm
30%
18.1°
1
Windvlaag: 2.2 m/s
67%
10:00
21°
1021.4 hPa
26%
18.6°
1
Windvlaag: 2.7 m/s
40%
11:00
22°
1021.4 hPa
24%
18.9°
1
Windvlaag: 1.1 m/s
24%
12:00
23°
1021.4 hPa
21%
20.1°
3
Windvlaag: 3.5 m/s
14%
13:00
24°
1021.3 hPa
21%
20.2°
3
Windvlaag: 3.8 m/s
10%
14:00
24°
1021.0 hPa
21%
20.2°
4
Windvlaag: 5 m/s
9%
15:00
24°
1020.6 hPa
21%
20.2°
4
Windvlaag: 4.9 m/s
6%
16:00
25°
1020.3 hPa
21%
20.3°
4
Windvlaag: 5.2 m/s
7%
17:00
24°
1019.8 hPa
21%
20.3°
4
Windvlaag: 4.9 m/s
7%
18:00
24°
1019.8 hPa
21%
20.2°
4
Windvlaag: 5 m/s
25%
19:00
23°
1019.9 hPa
21%
20.3°
4
Windvlaag: 4.8 m/s
10%
20:00
22°
1019.9 hPa
21%
19.9°
3
Windvlaag: 4.8 m/s
26%
21:00
21°
1020.0 hPa
21%
19.9°
2
Windvlaag: 4 m/s
11%
22:00
21°
1020.5 hPa
21%
19.8°
2
Windvlaag: 3.3 m/s
34%
23:00
21°
1020.9 hPa
22%
19.2°
1
Windvlaag: 1.6 m/s
53%
 07:21     21:01    Daglengte: 13:40 Zondag 21 Aug
00:00
21°
1020.8 hPa
23%
19.5°
0
Windvlaag: 1.1 m/s
91%
Temp/Neerslag /Baro Onweer/Dauwpunt
    Temp Baro Neerslag Dauwpunt Wind Bewolking  
 07:18     21:06    Daglengte: 13:48 Vandaag
02:00
19°
1017.0 hPa 8.9 mm 16.8°
6
82%
05:00
19°
1016.8 hPa 3.3 mm 16.6°
7
81% warningclass
08:00
18°
1017.5 hPa 2.3 mm 16.6°
6
86%
11:00
19°
1018.6 hPa 2.0 mm 17.1°
7
69%
14:00
20°
1019.4 hPa 17.3 mm 17.3°
7
64%
17:00
20°
1019.9 hPa 19.7 mm 15.1°
7
62%
20:00
20°
1020.6 hPa 20.1 mm 16.0°
6
83%
23:00
20°
1022.0 hPa   16.3°
4
53%
 07:19     21:04    Daglengte: 13:45 Morgen
02:00
19°
1022.0 hPa   15.8°
3
21%
05:00
18°
1021.6 hPa   14.1°
3
18%
08:00
17°
1022.2 hPa   13.7°
2
17%
11:00
21°
1022.6 hPa   16.1°
2
10%
14:00
22°
1022.2 hPa   16.7°
3
2%
17:00
22°
1021.2 hPa   19.3°
3
8%
20:00
22°
1021.1 hPa   20.0°
2
11%
23:00
20°
1021.8 hPa   19.5°
1
12%
 07:20     21:03    Daglengte: 13:43 Zaterdag 20 Aug
02:00
19°
1021.7 hPa   18.4°
2
53%
05:00
19°
1021.0 hPa   18.1°
2
87%
08:00
19°
1021.2 hPa   17.5°
2
83%
11:00
22°
1021.4 hPa 11.3 mm 18.9°
1
24%
14:00
24°
1021.0 hPa   20.2°
4
9%
17:00
24°
1019.8 hPa   20.3°
4
7%
20:00
22°
1019.9 hPa   19.9°
3
26%
23:00
21°
1020.9 hPa   19.2°
1
53%
 07:21     21:01    Daglengte: 13:40 Zondag 21 Aug
02:00
20°
1020.5 hPa   19.5°
1
62%
05:00
20°
1019.0 hPa 22.0 mm 18.4°
3
26%
08:00
20°
1020.0 hPa 11.3 mm 18.6°
4
26%
11:00
20°
1021.0 hPa 11.6 mm 18.6°
3
26%
14:00
23°
1020.1 hPa 11.7 mm 16.4°
4
1%
17:00
23°
1020.1 hPa 23.1 mm 16.5°
5
20%
20:00
21°
1020.8 hPa 23.1 mm 17.2°
4
1%
23:00
19°
1021.0 hPa 23.1 mm 17.4°
3
22%
 07:22     20:59    Daglengte: 13:37 Maandag 22 Aug
02:00
20°
1020.0 hPa 11.8 mm 18.4°
4
26%
05:00
19°
1019.1 hPa 12.2 mm 18.8°
6
26%
08:00
20°
1019.0 hPa 12.4 mm 18.9°
6
26%
11:00
20°
1018.9 hPa 12.7 mm 19.0°
5
26%
14:00
20°
1018.8 hPa 13.2 mm 19.4°
5
26%
17:00
20°
1018.0 hPa 13.5 mm 19.7°
4
22%
20:00
21°
1017.1 hPa 13.5 mm 20.0°
3
26%
23:00
21°
1017.1 hPa 26.7 mm 19.7°
2
26%
 07:23     20:58    Daglengte: 13:35 Dinsdag 23 Aug
02:00
20°
1017.0 hPa 13.6 mm 19.6°
1
1%
05:00
20°
1016.0 hPa 27.0 mm 19.2°
1
15%
08:00
20°
1015.9 hPa 13.7 mm 19.0°
3
1%
11:00
22°
1015.1 hPa 27.2 mm 17.7°
3
2%
14:00
26°
1013.0 hPa 27.2 mm 17.4°
5
3%
17:00
27°
1011.2 hPa 27.2 mm 18.8°
7
17%
20:00
25°
1011.1 hPa 27.2 mm 19.8°
3
1%
23:00
22°
1012.0 hPa 27.2 mm 19.2°
1
11%
 07:25     20:56    Daglengte: 13:31 Woensdag 24 Aug
02:00
22°
1011.9 hPa 27.2 mm 18.4°
4
25%
05:00
21°
1011.9 hPa 27.2 mm 18.5°
5
25%
08:00
21°
1011.5 hPa 27.2 mm 18.1°
3
4%
11:00
27°
1011.0 hPa 27.3 mm 16.5°
4
5%
14:00
28°
1010.6 hPa 27.3 mm 17.1°
4
25%
17:00
27°
1010.2 hPa 14.4 mm 18.5°
2
16%
20:00
22°
1012.1 hPa 19.2 mm 20.8°
2
11%
23:00
21°
1015.0 hPa   19.8°
4
12%
 07:26     20:55    Daglengte: 13:29 Donderdag 25 Aug
02:00
19°
1013.8 hPa 70.5 mm 18.8°
1
1%
08:00
19°
1014.3 hPa 71.0 mm 18.6°
1
0%
14:00
25°
1014.5 hPa 71.4 mm 19.8°
3
1%
20:00
22°
1014.0 hPa 74.0 mm 20.8°
1
0%
 07:27     20:53    Daglengte: 13:26 Vrijdag 26 Aug
02:00
19°
1015.8 hPa 94.3 mm 19.0°
0
1%
08:00
19°
1014.6 hPa 116.8 mm 18.3°
1
1%
14:00
20°
1015.7 hPa 125.9 mm 19.5°
2
1%
20:00
21°
1014.3 hPa 131.9 mm 19.9°
1
1%
 07:28     20:51    Daglengte: 13:23 Zaterdag 27 Aug
02:00
19°
1015.4 hPa 132.5 mm 18.5°
1
1%
08:00
18°
1014.8 hPa 135.5 mm 17.2°
1
1%
14:00
20°
1015.7 hPa 139.0 mm 18.7°
1
1%
20:00
24°
1015.4 hPa 0.2 mm 19.4°
2
43%
 07:29     20:49    Daglengte: 13:20 Zondag 28 Aug
02:00
22°
1017.6 hPa 0.5 mm 18.9°
2
43%
08:00
21°
1017.6 hPa 0.2 mm 18.1°
1
46%
14:00
26°
1016.9 hPa 0.1 mm 18.4°
2
43%
20:00
25°
1016.4 hPa 0.3 mm 19.1°
2
39%
 07:30     20:48    Daglengte: 13:18 Maandag 29 Aug
02:00
22°
1018.6 hPa 0.6 mm 18.7°
2
44%
08:00
21°
1018.5 hPa 0.7 mm 18.1°
1
50%
14:00
26°
1018.0 hPa 0.5 mm 18.3°
2
42%
20:00
24°
1017.2 hPa 0.7 mm 19.1°
2
43%
 07:31     20:46    Daglengte: 13:15 Dinsdag 30 Aug
02:00
22°
1019.3 hPa 1.1 mm 18.7°
2
51%
08:00
21°
1018.7 hPa 0.5 mm 17.7°
1
46%
14:00
25°
1017.5 hPa 0.4 mm 17.9°
2
46%
20:00
24°
1016.6 hPa 0.4 mm 18.7°
2
44%
 07:32     20:44    Daglengte: 13:12 Woensdag 31 Aug
02:00
22°
1018.6 hPa 0.7 mm 18.5°
2
54%
08:00
21°
1017.9 hPa 0.4 mm 17.6°
2
59%
14:00
25°
1017.0 hPa 0.4 mm 17.6°
3
53%
20:00
23°
1016.7 hPa 0.6 mm 18.7°
3
51%
 07:33     20:43    Daglengte: 13:10 Donderdag 01 Sep
02:00
21°
1018.8 hPa 0.7 mm 18.0°
2
54%
08:00
21°
1018.5 hPa 0.3 mm 17.4°
2
59%
14:00
24°
1017.9 hPa 0.3 mm 17.1°
3
51%
20:00
23°
1017.3 hPa 0.3 mm 17.7°
2
41%
  CAPE Lifted Index Hail Supercell Tornado SRH 3km CL BTM PRES CL TOP PRES Swiss DWD icon SMHI TS
 07:18     21:06    Daglengte: 13:48 Vandaag
01:00 594 J/kg -1.7 K 0 % 0 % 0 % 0 m²/s² 0 0 -0.65 80
02:00 581 J/kg -1.6 K 0 % 0 % 0 % 0 m²/s² 0 0 -0.91 80
03:00 466 J/kg -1.1 K 0 % 0 % 0 % 0 m²/s² 0 0 0.13 80
04:00 342 J/kg -0.8 K 0 % 0 % 0 % 0 m²/s² 0 0 0.88 80
05:00 204 J/kg -0.6 K 0 % 0 % 0 % 0 m²/s² 0 0 1.08 95
06:00 273 J/kg -0.7 K 0 % 0 % 0 % 0 m²/s² 0 0 0.08 95
07:00 245 J/kg -0.7 K 0 % 0 % 0 % 0 m²/s² 0 0 0.14 80
08:00 288 J/kg -0.6 K 0 % 0 % 0 % 0 m²/s² 0 0 -0.03 80
09:00 204 J/kg -0.6 K 0 % 0 % 0 % 0 m²/s² 0 0 -0.42 80
10:00 197 J/kg -0.7 K 0 % 0 % 0 % 0 m²/s² 0 0 -0.49 3
11:00 253 J/kg -0.8 K 0 % 0 % 0 % 0 m²/s² 0 0 -0.62 3
12:00 278 J/kg -0.9 K 0 % 0 % 0 % 0 m²/s² 0 0 -0.9 3
13:00 583 J/kg -2.8 K 0 % 0 % 0 % 0 m²/s² 0 0 -2.2 80
14:00 702 J/kg -3.0 K 0 % 0 % 0 % 0 m²/s² 0 0 -1.92 80
15:00 479 J/kg -1.5 K 0 % 0 % 0 % 0 m²/s² 0 0 0.03 80
16:00 416 J/kg -0.8 K 0 % 0 % 0 % 0 m²/s² 0 0 1.33 80
17:00 273 J/kg 0.3 K 0 % 0 % 0 % 0 m²/s² 0 0 3.12 80
18:00 271 J/kg 0.2 K 0 % 0 % 0 % 0 m²/s² 0 0 3.44 80
19:00 199 J/kg 0.9 K 0 % 0 % 0 % 0 m²/s² 0 0 5.49 80
20:00 97 J/kg 2.6 K 0 % 0 % 0 % 0 m²/s² 0 0 8.45 3
21:00 82 J/kg 3.5 K 0 % 0 % 0 % 0 m²/s² 0 0 9.68 3
22:00 86 J/kg 4.1 K 0 % 0 % 0 % 0 m²/s² 0 0 10.46 3
23:00 69 J/kg 5.0 K 0 % 0 % 0 % 0 m²/s² 0 0 11.78 3
 07:19     21:04    Daglengte: 13:45 Morgen
00:00 62 J/kg 5.4 K 0 % 0 % 0 % 0 m²/s² 0 0 12.39 2
01:00 50 J/kg 5.7 K 0 % 0 % 0 % 0 m²/s² 0 0 12.93 2
02:00 43 J/kg 6.1 K 0 % 0 % 0 % 0 m²/s² 0 0 13.6 1
03:00 25 J/kg 6.7 K 0 % 0 % 0 % 0 m²/s² 0 0 13.54 1
04:00 9 J/kg 7.1 K 0 % 0 % 0 % 0 m²/s² 0 0 13.19 1
05:00 3 J/kg 7.4 K 0 % 0 % 0 % 0 m²/s² 0 0 13.31 2
06:00 0 J/kg 7.4 K 0 % 0 % 0 % 0 m²/s² 0 0 12.08 1
07:00 0 J/kg 7.0 K 0 % 0 % 0 % 0 m²/s² 0 0 11.95 1
08:00 0 J/kg 6.4 K 0 % 0 % 0 % 0 m²/s² 0 0 11.2 1
09:00 0 J/kg 6.5 K 0 % 0 % 0 % 0 m²/s² 0 0 10.64 1
10:00 6 J/kg 6.3 K 0 % 0 % 0 % 0 m²/s² 0 0 10.44 1
11:00 12 J/kg 5.8 K 0 % 0 % 0 % 0 m²/s² 0 0 9.94 1
12:00 7 J/kg 5.3 K 0 % 0 % 0 % 0 m²/s² 0 0 9.32 3
13:00 2 J/kg 4.9 K 0 % 0 % 0 % 0 m²/s² 0 0 8.83 2
14:00 0 J/kg 4.5 K 0 % 0 % 0 % 0 m²/s² 0 0 8.55 1
15:00 0 J/kg 4.0 K 0 % 0 % 0 % 0 m²/s² 0 0 8.14 2
16:00 1 J/kg 3.2 K 0 % 0 % 0 % 0 m²/s² 0 0 7.25 3
17:00 10 J/kg 2.1 K 0 % 0 % 0 % 0 m²/s² 0 0 6.24 2
18:00 18 J/kg 1.2 K 0 % 0 % 0 % 0 m²/s² 0 0 5.34 1
19:00 20 J/kg 0.5 K 0 % 0 % 0 % 0 m²/s² 0 0 4.43 1
20:00 13 J/kg 0.2 K 0 % 0 % 0 % 0 m²/s² 0 0 4.13 1
21:00 29 J/kg -0.1 K 0 % 0 % 0 % 0 m²/s² 0 0 3.71 1
22:00 37 J/kg -0.3 K 0 % 0 % 0 % 0 m²/s² 0 0 3.42 2
23:00 53 J/kg -0.5 K 0 % 0 % 0 % 0 m²/s² 0 0 3.22 2
 07:20     21:03    Daglengte: 13:43 Zaterdag 20 Aug
00:00 55 J/kg -0.4 K 0 % 0 % 0 % 0 m²/s² 0 0 3.32 2
01:00 40 J/kg -0.1 K 0 % 0 % 0 % 0 m²/s² 0 0 3.62 2
02:00 37 J/kg -0.4 K 0 % 0 % 0 % 0 m²/s² 0 0 3.2 2
03:00 52 J/kg -0.5 K 0 % 0 % 0 % 0 m²/s² 0 0 3.22 2
04:00 72 J/kg -0.7 K 0 % 0 % 0 % 0 m²/s² 0 0 3.11 2
05:00 20 J/kg -0.6 K 0 % 0 % 0 % 0 m²/s² 0 0 3 2
06:00 36 J/kg -0.4 K 0 % 0 % 0 % 0 m²/s² 0 0 2.93 2
07:00 24 J/kg 0.1 K 0 % 0 % 0 % 0 m²/s² 0 0 3.16 2
08:00 3 J/kg 0.8 K 0 % 0 % 0 % 0 m²/s² 0 0 3.95 2
09:00 11 J/kg 1.1 K 0 % 0 % 0 % 0 m²/s² 0 0 4.34 2
10:00 11 J/kg 1.0 K 0 % 0 % 0 % 0 m²/s² 0 0 4.33 2
11:00 7 J/kg 1.1 K 0 % 0 % 0 % 0 m²/s² 0 0 4.7 1
12:00 3 J/kg 0.8 K 0 % 0 % 0 % 0 m²/s² 0 0 4.61 2
13:00 0 J/kg 0.9 K 0 % 0 % 0 % 0 m²/s² 0 0 5.01 1
14:00 0 J/kg 1.3 K 0 % 0 % 0 % 0 m²/s² 0 0 5.41 1
15:00 0 J/kg 1.1 K 0 % 0 % 0 % 0 m²/s² 0 0 5.12 0
16:00 0 J/kg 0.5 K 0 % 0 % 0 % 0 m²/s² 0 0 4.52 0
17:00 0 J/kg 0.6 K 0 % 0 % 0 % 0 m²/s² 0 0 4.71 0
18:00 16 J/kg 0.1 K 0 % 0 % 0 % 0 m²/s² 0 0 4.54 3
19:00 0 J/kg -0.2 K 0 % 0 % 0 % 0 m²/s² 0 0 4.15 2
20:00 11 J/kg -0.1 K 0 % 0 % 0 % 0 m²/s² 0 0 3.14 3
21:00 0 J/kg 0.1 K 0 % 0 % 0 % 0 m²/s² 0 0 2.68 2
22:00 0 J/kg 0.3 K 0 % 0 % 0 % 0 m²/s² 0 0 2.82 3
23:00 0 J/kg 0.3 K 0 % 0 % 0 % 0 m²/s² 0 0 2.73 3
 07:21     21:01    Daglengte: 13:40 Zondag 21 Aug
00:00 0 J/kg 0.8 K 0 % 0 % 0 % 0 m²/s² 0 0 3.32 3
Temp Baro Wind Neerslag
  EWN Forecast EWN WRFDA DWD ICON FMI HIRLAM MET Norway GFSWXSIM
 07:18     21:06    Daglengte: 13:48 Vandaag
02:00 18.7° 1017.0 hPa 5.9 m/s 8.9 mm 19.0° 1015.9 hPa 8.5 m/s 9.2 mm 18.2° 1017.7 hPa 7.1 m/s 10.2 mm 19.4° 1015.8 hPa 4.5 m/s 0.0 mm 17.9° 1017.2 hPa 7.4 m/s 17.2° 1017.0 hPa 27.0 m/s 3.1 mm
05:00 18.7° 1016.8 hPa 6.9 m/s 3.3 mm 18.2° 1014.8 hPa 7.4 m/s 14.5 mm 18.5° 1017.2 hPa 7.1 m/s 4.4 mm 19.1° 1016.2 hPa 4.9 m/s 0.0 mm 17.4° 1016.9 hPa 7.1 m/s 16.7° 1016.0 hPa 28.0 m/s 3.0 mm
08:00 18.5° 1017.5 hPa 6.1 m/s 2.3 mm 17.9° 1015.6 hPa 8.6 m/s 18.5 mm 18.5° 1018.4 hPa 6.0 m/s 5.4 mm 19.1° 1017.2 hPa 4.4 m/s 0.0 mm 17.1° 1018.2 hPa 5.7 m/s 16.5° 1018.0 hPa 28.0 m/s 2.3 mm
11:00 19.2° 1018.6 hPa 6.6 m/s 2.0 mm 18.2° 1016.3 hPa 10.0 m/s 27.4 mm 19.5° 1019.8 hPa 7.7 m/s 0.6 mm 20.0° 1018.3 hPa 5.0 m/s 0.0 mm 16.8° 1019.3 hPa 5.3 m/s 16.9° 1019.0 hPa 28.0 m/s 3.3 mm
14:00 19.8° 1019.4 hPa 6.7 m/s 17.3 mm 20.1° 1017.0 hPa 6.5 m/s 75.0 mm 19.8° 1020.5 hPa 7.8 m/s 1.6 mm 20.5° 1019.1 hPa 5.3 m/s 0.0 mm 17.4° 1019.9 hPa 5.0 m/s 17.7° 1020.0 hPa 28.0 m/s 2.8 mm
17:00 20.0° 1019.9 hPa 6.5 m/s 19.7 mm 20.7° 1017.9 hPa 6.6 m/s 88.3 mm 19.8° 1020.7 hPa 6.7 m/s 1.8 mm 21.5° 1019.7 hPa 4.6 m/s 0.0 mm 18.1° 1020.1 hPa 6.1 m/s 18.3° 1020.0 hPa 27.0 m/s 2.3 mm
20:00 20.1° 1020.6 hPa 5.7 m/s 20.1 mm 19.0° 1018.6 hPa 8.0 m/s 91.4 mm 20.3° 1021.3 hPa 5.6 m/s 1.8 mm 21.4° 1020.5 hPa 4.6 m/s 0.0 mm 18.7° 1020.8 hPa 5.7 m/s 18.4° 1021.0 hPa 24.0 m/s 1.5 mm
23:00 19.9° 1022.0 hPa 4.3 m/s 0.0 mm 18.9° 1020.5 hPa 6.0 m/s 95.9 mm 20.1° 1022.7 hPa 4.2 m/s 0.0 mm 20.8° 1022.1 hPa 3.3 m/s 0.0 mm 18.5° 1022.4 hPa 3.9 m/s 18.3° 1022.0 hPa 18.0 m/s 0.5 mm
 07:19     21:04    Daglengte: 13:45 Morgen
02:00 18.9° 1022.0 hPa 3.3 m/s 0.0 mm 18.5° 1020.5 hPa 4.5 m/s 96.5 mm 18.8° 1022.6 hPa 2.5 m/s 0.0 mm 20.4° 1021.7 hPa 3.7 m/s 0.0 mm 17.7° 1022.5 hPa 2.6 m/s 18.0° 1022.0 hPa 15.0 m/s 0.3 mm
05:00 17.9° 1021.6 hPa 2.5 m/s 0.0 mm 16.3° 1020.3 hPa 4.3 m/s 97.4 mm 17.7° 1022.1 hPa 1.8 m/s 0.0 mm 20.4° 1021.6 hPa 3.2 m/s 0.0 mm 17.4° 1021.9 hPa 2.2 m/s 17.7° 1022.0 hPa 14.0 m/s 0.2 mm
08:00 17.5° 1022.2 hPa 2.4 m/s 0.0 mm 16.8° 1021.2 hPa 4.6 m/s 98.0 mm 16.2° 1022.5 hPa 1.6 m/s 0.0 mm 20.3° 1021.9 hPa 3.1 m/s 0.0 mm 17.4° 1022.6 hPa 1.7 m/s 17.6° 1022.0 hPa 12.0 m/s 0.0 mm
11:00 20.7° 1022.6 hPa 2.0 m/s 0.0 mm 20.4° 1021.4 hPa 2.7 m/s 98.0 mm 21.4° 1022.7 hPa 1.6 m/s 0.0 mm 20.7° 1022.9 hPa 2.9 m/s 0.0 mm 20.5° 1022.7 hPa 1.8 m/s 19.9° 1023.0 hPa 9.0 m/s 0.3 mm
14:00 22.5° 1022.2 hPa 2.8 m/s 0.0 mm 22.0° 1021.2 hPa 3.1 m/s 98.1 mm 23.5° 1022.3 hPa 2.7 m/s 0.0 mm 22.4° 1022.7 hPa 2.8 m/s 0.0 mm 23.0° 1021.7 hPa 3.0 m/s 22.9° 1022.0 hPa 8.0 m/s 0.0 mm
17:00 22.5° 1021.2 hPa 3.1 m/s 0.0 mm 21.9° 1020.6 hPa 3.3 m/s 98.1 mm 23.4° 1021.3 hPa 3.4 m/s 0.0 mm 22.8° 1021.2 hPa 2.8 m/s 23.6° 1021.0 hPa 8.0 m/s 0.0 mm
20:00 21.5° 1021.1 hPa 2.1 m/s 0.0 mm 21.2° 1020.3 hPa 2.7 m/s 98.1 mm 22.5° 1021.1 hPa 2.1 m/s 0.0 mm 20.7° 1021.2 hPa 1.8 m/s 22.2° 1021.0 hPa 7.0 m/s 0.0 mm
23:00 20.2° 1021.8 hPa 1.5 m/s 0.0 mm 20.6° 1021.4 hPa 1.7 m/s 98.4 mm 20.7° 1021.7 hPa 0.8 m/s 0.0 mm 17.1° 1022.4 hPa 1.0 m/s 20.1° 1022.0 hPa 1.0 m/s 0.0 mm
 07:20     21:03    Daglengte: 13:43 Zaterdag 20 Aug
02:00 19.1° 1021.7 hPa 1.9 m/s 0.0 mm 20.3° 1021.1 hPa 2.1 m/s 99.1 mm 19.7° 1021.7 hPa 0.9 m/s 0.1 mm 16.5° 1021.9 hPa 1.5 m/s 18.9° 1022.0 hPa 3.0 m/s 0.0 mm
05:00 18.6° 1021.0 hPa 1.6 m/s 0.0 mm 19.9° 1020.4 hPa 1.6 m/s 99.8 mm 18.9° 1021.0 hPa 0.9 m/s 0.0 mm 16.4° 1021.4 hPa 1.4 m/s 18.3° 1021.0 hPa 4.0 m/s 0.0 mm
08:00 18.7° 1021.2 hPa 1.6 m/s 0.0 mm 19.3° 1020.8 hPa 1.9 m/s 100.4 mm 18.8° 1021.5 hPa 1.1 m/s 0.0 mm 17.5° 1021.6 hPa 1.2 m/s 17.9° 1022.0 hPa 3.0 m/s 0.0 mm
11:00 21.9° 1021.4 hPa 1.1 m/s 11.3 mm 21.3° 1020.7 hPa 2.4 m/s 100.7 mm 22.9° 1021.7 hPa 1.1 m/s 0.0 mm 22.4° 1021.2 hPa 1.3 m/s 19.7° 1021.0 hPa 1.0 m/s 0.0 mm
14:00 24.0° 1021.0 hPa 3.8 m/s 0.0 mm 22.2° 1019.9 hPa 4.9 m/s 100.7 mm 24.5° 1021.3 hPa 3.5 m/s 0.0 mm 25.2° 1019.9 hPa 2.7 m/s 24.9° 1020.0 hPa 7.0 m/s 0.0 mm
17:00 24.2° 1019.8 hPa 3.9 m/s 0.0 mm 22.4° 1018.5 hPa 4.8 m/s 100.7 mm 24.6° 1020.1 hPa 3.7 m/s 0.0 mm 24.8° 1019.1 hPa 3.6 m/s 26.3° 1019.0 hPa 13.0 m/s 0.0 mm
20:00 22.5° 1019.9 hPa 3.0 m/s 0.0 mm 21.7° 1017.8 hPa 3.9 m/s 100.7 mm 22.7° 1020.4 hPa 2.8 m/s 0.0 mm 22.2° 1019.0 hPa 2.4 m/s 24.6° 1019.0 hPa 10.0 m/s 0.0 mm
23:00 20.8° 1020.9 hPa 1.2 m/s 0.0 mm 19.3° 1018.9 hPa 1.5 m/s 100.7 mm 21.1° 1021.4 hPa 1.1 m/s 0.0 mm 19.4° 1020.4 hPa 0.9 m/s 22.5° 1020.0 hPa 7.0 m/s 0.0 mm
 07:21     21:01    Daglengte: 13:40 Zondag 21 Aug
02:00 20.0° 1020.5 hPa 0.8 m/s 0.0 mm 18.4° 1018.8 hPa 2.6 m/s 100.7 mm 20.4° 1020.9 hPa 0.4 m/s 0.0 mm 20.2° 1020.0 hPa 0.6 m/s 21.2° 1020.0 hPa 5.0 m/s 0.0 mm
05:00 19.9° 1019.0 hPa 3.0 m/s 22.0 mm 19.7° 1019.0 hPa 1.3 m/s 22.0 mm 20.6° 1019.0 hPa 8.0 m/s 0.0 mm
08:00 19.8° 1020.0 hPa 4.2 m/s 11.3 mm 19.8° 1019.9 hPa 2.3 m/s 22.3 mm 20.0° 1020.0 hPa 10.0 m/s 0.2 mm
11:00 20.2° 1021.0 hPa 2.7 m/s 11.6 mm 20.6° 1021.0 hPa 1.6 m/s 22.8 mm 20.1° 1021.0 hPa 6.0 m/s 0.3 mm
14:00 23.0° 1020.1 hPa 3.8 m/s 11.7 mm 23.4° 1020.5 hPa 2.7 m/s 23.1 mm 22.9° 1020.0 hPa 7.0 m/s 0.3 mm
17:00 23.1° 1020.1 hPa 4.6 m/s 23.1 mm 23.1° 1020.6 hPa 3.1 m/s 23.1 mm 23.3° 1020.0 hPa 9.0 m/s 0.0 mm
20:00 21.3° 1020.8 hPa 3.6 m/s 23.1 mm 21.0° 1020.7 hPa 2.1 m/s 23.1 mm 22.1° 1021.0 hPa 8.0 m/s 0.0 mm
23:00 19.1° 1021.0 hPa 2.7 m/s 23.1 mm 18.7° 1021.2 hPa 1.3 m/s 23.1 mm 20.4° 1021.0 hPa 7.0 m/s 0.0 mm
 07:22     20:59    Daglengte: 13:37 Maandag 22 Aug
02:00 19.5° 1020.0 hPa 3.9 m/s 11.8 mm 19.4° 1020.1 hPa 1.8 m/s 23.3 mm 19.9° 1020.0 hPa 10.0 m/s 0.2 mm
05:00 19.5° 1019.1 hPa 5.7 m/s 12.2 mm 19.4° 1019.3 hPa 2.6 m/s 23.9 mm 19.6° 1019.0 hPa 15.0 m/s 0.5 mm
08:00 19.5° 1019.0 hPa 5.9 m/s 12.4 mm 19.6° 1019.0 hPa 2.6 m/s 24.3 mm 19.5° 1019.0 hPa 16.0 m/s 0.5 mm
11:00 19.7° 1018.9 hPa 5.5 m/s 12.7 mm 19.9° 1018.9 hPa 2.3 m/s 24.6 mm 19.7° 1019.0 hPa 15.0 m/s 0.8 mm
14:00 19.9° 1018.8 hPa 5.0 m/s 13.2 mm 19.9° 1018.8 hPa 2.0 m/s 25.4 mm 20.1° 1019.0 hPa 14.0 m/s 1.0 mm
17:00 20.4° 1018.0 hPa 3.7 m/s 13.5 mm 20.4° 1017.9 hPa 1.9 m/s 26.1 mm 20.7° 1018.0 hPa 9.0 m/s 1.0 mm
20:00 20.7° 1017.1 hPa 2.9 m/s 13.5 mm 20.7° 1017.4 hPa 1.3 m/s 26.4 mm 20.9° 1017.0 hPa 8.0 m/s 0.5 mm
23:00 20.6° 1017.1 hPa 1.5 m/s 26.7 mm 20.5° 1017.5 hPa 0.7 m/s 26.7 mm 20.8° 1017.0 hPa 4.0 m/s 0.0 mm
 07:23     20:58    Daglengte: 13:35 Dinsdag 23 Aug
02:00 20.5° 1017.0 hPa 1.4 m/s 13.6 mm 20.4° 1017.2 hPa 0.6 m/s 26.9 mm 20.7° 1017.0 hPa 4.0 m/s 0.3 mm
05:00 20.2° 1016.0 hPa 1.4 m/s 27.0 mm 20.2° 1016.0 hPa 0.6 m/s 27.0 mm 20.4° 1016.0 hPa 4.0 m/s 0.0 mm
08:00 20.1° 1015.9 hPa 2.8 m/s 13.7 mm 20.2° 1015.9 hPa 1.4 m/s 27.2 mm 20.0° 1016.0 hPa 7.0 m/s 0.2 mm
11:00 22.0° 1015.1 hPa 3.1 m/s 27.2 mm 23.7° 1015.2 hPa 1.4 m/s 27.2 mm 21.4° 1015.0 hPa 8.0 m/s 0.0 mm
14:00 26.1° 1013.0 hPa 4.5 m/s 27.2 mm 27.4° 1013.2 hPa 3.4 m/s 27.2 mm 25.7° 1013.0 hPa 8.0 m/s 0.0 mm
17:00 26.5° 1011.2 hPa 6.5 m/s 27.2 mm 26.3° 1011.8 hPa 3.7 m/s 27.2 mm 27.3° 1011.0 hPa 15.0 m/s 0.0 mm
20:00 24.5° 1011.1 hPa 3.4 m/s 27.2 mm 24.2° 1011.4 hPa 1.5 m/s 27.2 mm 25.6° 1011.0 hPa 9.0 m/s 0.0 mm
23:00 21.9° 1012.0 hPa 1.4 m/s 27.2 mm 21.5° 1012.1 hPa 1.2 m/s 27.2 mm 23.1° 1012.0 hPa 2.0 m/s 0.0 mm
 07:25     20:56    Daglengte: 13:31 Woensdag 24 Aug
02:00 21.7° 1011.9 hPa 3.5 m/s 27.2 mm 21.6° 1011.8 hPa 2.0 m/s 27.2 mm 22.1° 1012.0 hPa 8.0 m/s 0.0 mm
05:00 21.1° 1011.9 hPa 4.7 m/s 27.2 mm 21.0° 1011.9 hPa 1.9 m/s 27.2 mm 21.6° 1012.0 hPa 13.0 m/s 0.0 mm
08:00 21.1° 1011.5 hPa 3.4 m/s 27.2 mm 20.7° 1011.3 hPa 2.3 m/s 27.2 mm 22.3° 1012.0 hPa 7.0 m/s 0.0 mm
11:00 26.8° 1011.0 hPa 3.8 m/s 27.3 mm 27.9° 1011.0 hPa 1.7 m/s 27.3 mm 26.4° 1011.0 hPa 10.0 m/s 0.0 mm
14:00 28.5° 1010.6 hPa 3.7 m/s 27.3 mm 29.9° 1010.4 hPa 2.6 m/s 27.3 mm 28.0° 1011.0 hPa 7.0 m/s 0.0 mm
17:00 27.0° 1010.2 hPa 2.3 m/s 14.4 mm 27.7° 1010.7 hPa 1.8 m/s 27.7 mm 26.8° 1010.0 hPa 4.0 m/s 1.0 mm
20:00 21.8° 1012.1 hPa 1.7 m/s 19.2 mm 21.4° 1012.5 hPa 1.3 m/s 33.5 mm 23.1° 1012.0 hPa 3.0 m/s 4.9 mm
23:00 20.5° 1015.0 hPa 4.5 m/s 18.2 mm 20.0° 1015.0 hPa 2.3 m/s 35.0 mm 22.1° 1015.0 hPa 11.0 m/s 1.5 mm
 07:26     20:55    Daglengte: 13:29 Donderdag 25 Aug
02:00 19.3° 1013.8 hPa 1.4 m/s 35.5 mm 19.3° 1013.8 hPa 1.4 m/s 35.5 mm
08:00 19.4° 1014.3 hPa 1.2 m/s 35.5 mm 19.4° 1014.3 hPa 1.2 m/s 35.5 mm
14:00 24.6° 1014.5 hPa 2.6 m/s 35.8 mm 24.6° 1014.5 hPa 2.6 m/s 35.8 mm
20:00 22.0° 1014.0 hPa 1.5 m/s 37.4 mm 22.0° 1014.0 hPa 1.5 m/s 37.4 mm
 07:27     20:53    Daglengte: 13:26 Vrijdag 26 Aug
02:00 19.2° 1015.8 hPa 0.1 m/s 55.4 mm 19.2° 1015.8 hPa 0.1 m/s 55.4 mm
08:00 18.8° 1014.6 hPa 0.8 m/s 58.8 mm 18.8° 1014.6 hPa 0.8 m/s 58.8 mm
14:00 19.7° 1015.7 hPa 1.8 m/s 64.8 mm 19.7° 1015.7 hPa 1.8 m/s 64.8 mm
20:00 20.8° 1014.3 hPa 1.4 m/s 66.0 mm 20.8° 1014.3 hPa 1.4 m/s 66.0 mm
 07:28     20:51    Daglengte: 13:23 Zaterdag 27 Aug
02:00 19.0° 1015.4 hPa 1.2 m/s 66.5 mm 19.0° 1015.4 hPa 1.2 m/s 66.5 mm
08:00 17.7° 1014.8 hPa 1.1 m/s 68.3 mm 17.7° 1014.8 hPa 1.1 m/s 68.3 mm
14:00 20.4° 1015.7 hPa 0.8 m/s 69.7 mm 20.4° 1015.7 hPa 0.8 m/s 69.7 mm
20:00 24.0° 1015.4 hPa 1.8 m/s 0.2 mm
 07:29     20:49    Daglengte: 13:20 Zondag 28 Aug
02:00 21.9° 1017.6 hPa 2.0 m/s 0.5 mm
08:00 21.4° 1017.6 hPa 0.9 m/s 0.2 mm
14:00 25.8° 1016.9 hPa 2.0 m/s 0.1 mm
20:00 24.8° 1016.4 hPa 2.0 m/s 0.3 mm
 07:30     20:48    Daglengte: 13:18 Maandag 29 Aug
02:00 21.9° 1018.6 hPa 1.7 m/s 0.6 mm
08:00 21.4° 1018.5 hPa 1.0 m/s 0.7 mm
14:00 25.7° 1018.0 hPa 2.2 m/s 0.5 mm
20:00 23.8° 1017.2 hPa 2.2 m/s 0.7 mm
 07:31     20:46    Daglengte: 13:15 Dinsdag 30 Aug
02:00 21.5° 1019.3 hPa 1.8 m/s 1.1 mm
08:00 20.9° 1018.7 hPa 1.3 m/s 0.5 mm
14:00 25.3° 1017.5 hPa 2.3 m/s 0.4 mm
20:00 24.2° 1016.6 hPa 2.4 m/s 0.4 mm
 07:32     20:44    Daglengte: 13:12 Woensdag 31 Aug
02:00 21.7° 1018.6 hPa 2.0 m/s 0.7 mm
08:00 21.0° 1017.9 hPa 1.6 m/s 0.4 mm
14:00 25.0° 1017.0 hPa 2.9 m/s 0.4 mm
20:00 23.2° 1016.7 hPa 3.3 m/s 0.6 mm
 07:33     20:43    Daglengte: 13:10 Donderdag 01 Sep
02:00 21.2° 1018.8 hPa 1.9 m/s 0.7 mm
08:00 20.5° 1018.5 hPa 1.8 m/s 0.3 mm
14:00 24.0° 1017.9 hPa 2.8 m/s 0.3 mm
20:00 22.9° 1017.3 hPa 2.5 m/s 0.3 mm
FMI Hirlam - 7.5 km EWN WRFDA - 12 km DWD ICON - 7 km GFS - 25 km Basiskaart






























































Updatetijd (Europe/Amsterdam) Resolutie Lengte Stap
FMI Hirlam 19:15, 01:15, 07:15, 13:15 7.5 km 49h 1h
EWN WRFDA 22:30, 04:30, 10:30, 16:30 12 km 73h 1h
DWD ICON 23:45, 05:45, 11:45, 17:45 7 km 75h 1h
GFS 20:00, 02:00, 08:00, 14:00 25 km 237h 3h
30+ mm
25-30 mm
20-25 mm
15-20 mm
10-15 mm
6-10 mm
4-6 mm
2-4 mm
1-2 mm
0.5-1 mm
0.2-0.5 mm
0.1-0.2 mm
30+ mm
25-30 mm
20-25 mm
15-20 mm
10-15 mm
6-10 mm
4-6 mm
2-4 mm
1-2 mm
0.5-1 mm
0.2-0.5 mm
0.1-0.2 mm
Sneeuwval
Natte sneeuw
Hagel
Vorst
30+ mm
25-30 mm
20-25 mm
15-20 mm
10-15 mm
6-10 mm
4-6 mm
2-4 mm
1-2 mm
0.5-1 mm
0.2-0.5 mm
0.1-0.2 mm
Sneeuwval
Natte sneeuw
Hagel
Vorst
Onweer
50 mm
40 mm
30 mm
26 mm
22 mm
18 mm
14 mm
10 mm
9 mm
8 mm
7 mm
6 mm
5 mm
4.5 mm
4 mm
3.5 mm
3 mm
2.5 mm
2 mm
1.5 mm
1 mm
0.8 mm
0.6 mm
0.4 mm
0.2 mm
0.05 mm
35°
30°
25°
20°
15°
10°